[Date Prev][Date Next][Thread Prev][Thread Next] - [Date Index][Thread Index][Author Index]

2 Line ISS Keps 3-14



ISS
1 25544U 98067A   06073.03392146  .00013497  00000-0  95463-4 0  5243
2 25544 051.6451 317.0487 0008634 003.1813 136.4119 15.74327974418165
----
Via the sarex mailing list at AMSAT.ORG courtesy of AMSAT-NA.
To unsubscribe, send "unsubscribe sarex" to Majordomo@amsat.org



AMSAT Top AMSAT Home